Regional Weather Roundup
Issued by NWS

Home | Current Version | Previous Version | Text Only | Print | Product List | Glossary Off
Versions: 1 2 3 4 5 6 7 8 9 10 11 12 13 14 15 16 17 18 19 20 21 22 23 24 25 26 27

000
ASUS45 KPSR 191210
RWRAZ

ARIZONA HOURLY REGIONAL WEATHER ROUNDUP
NATIONAL WEATHER SERVICE PHOENIX AZ
500 AM MST WED JUL 19 2017

NOTE: FAIR INDICATES FEW OR NO CLOUDS BELOW 12,000 FEET WITH NO
SIGNIFICANT WEATHER AND/OR OBSTRUCTIONS TO VISIBILITY.

AZZ001>003-036-191300-
NORTHWEST ARIZONA

CITY           SKY/WX    TMP DP  RH WIND       PRES   REMARKS
BULLHEAD CITY  CLOUDY    95  63  34 S9        29.86S
KINGMAN        CLOUDY    78  62  57 SE8       30.08R
6HR MIN TEMP:  74; 6HR MAX TEMP:  80;

$$

AZZ004>008-015-016-018-191300-
NORTH CENTRAL ARIZONA

CITY           SKY/WX    TMP DP  RH WIND       PRES   REMARKS
GRAND CANYON   CLOUDY    59  58  96 CALM      30.34R
6HR MIN TEMP:  58; 6HR MAX TEMP:  62;

WILLIAMS       CLOUDY    59  55  88 CALM      30.34R
PRESCOTT       MOCLDY    64  64 100 SW3       30.23R
6HR MIN TEMP:  64; 6HR MAX TEMP:  67; 6HR PCP:  0.02;

FLAGSTAFF      PTCLDY    55  55 100 CALM      30.36R
6HR MIN TEMP:  55; 6HR MAX TEMP:  59; 6HR PCP: TRACE;

PAYSON         MOCLDY    64  59  82 CALM      30.26R
PAGE           CLOUDY    73  61  65 W8        30.17R
6HR MIN TEMP:  72; 6HR MAX TEMP:  82; 6HR PCP:  0.02;

$$

AZZ009>014-017-191300-
NORTHEAST ARIZONA

CITY           SKY/WX    TMP DP  RH WIND       PRES   REMARKS
WINSLOW        MOCLDY    64  61  90 E3        30.23R
6HR MIN TEMP:  63; 6HR MAX TEMP:  68;

SAINT JOHNS    CLOUDY    63  60  90 CALM      30.27S
6HR MIN TEMP:  63; 6HR MAX TEMP:  67; 6HR PCP: TRACE;

WINDOW ROCK    PTCLDY    61  56  83 NE5       30.33F
6HR MIN TEMP:  58; 6HR MAX TEMP:  65;

SHOW LOW       MOCLDY    55  54  94 S3        30.33S
$$

AZZ540-542>544-546-548-191300-
GREATER PHOENIX AREA

CITY           SKY/WX    TMP DP  RH WIND       PRES   REMARKS
PHOENIX        MOCLDY    85  69  58 SE5       29.93R
6HR MIN TEMP:  79; 6HR MAX TEMP:  87;

BUCKEYE        CLOUDY    82  68  61 CALM      29.94R
LUKE AFB       MOCLDY    83  71  67 N3        29.93R
6HR MIN TEMP:  83; 6HR MAX TEMP:  85;

DEER VALLEY    MOCLDY    82  66  58 NE5       29.95R
6HR MIN TEMP:  82; 6HR MAX TEMP:  84;

SCOTTSDALE     MOCLDY    82  70  66 SW5       29.97R
6HR MIN TEMP:  82; 6HR MAX TEMP:  85;

MESA-GATEWAY   MOCLDY    82  72  69 E6        29.98R
$$

AZZ539-553-191300-
SOUTHWEST MARICOPA COUNTY AND PINAL COUNTY

CITY           SKY/WX    TMP DP  RH WIND       PRES   REMARKS
CASA GRANDE    MOCLDY    82  66  58 S6        29.97R
6HR MIN TEMP:  81; 6HR MAX TEMP:  85;

GILA BEND      CLOUDY    83  72  69 SE8       29.90R
6HR MIN TEMP:  81; 6HR MAX TEMP:  85; 6HR PCP: TRACE;

$$

AZZ503-504-507>509-191300-
SOUTHEAST ARIZONA

CITY           SKY/WX    TMP DP  RH WIND       PRES   REMARKS
TUCSON         PTCLDY    76  63  64 SE14      30.06R
6HR MIN TEMP:  75; 6HR MAX TEMP:  82;

DAVIS-MONTHAN  MOCLDY    74  64  73 SE8       30.05R
6HR MIN TEMP:  73; 6HR MAX TEMP:  80;

NOGALES        MOCLDY    67  66  97 CALM      30.13R
6HR MIN TEMP:  67; 6HR MAX TEMP:  68; 6HR PCP:  0.05;

SIERRA VISTA   CLOUDY    66  61  84 S3        30.19R
6HR MIN TEMP:  65; 6HR MAX TEMP:  69; 6HR PCP: TRACE;

DOUGLAS        PTCLDY    65  64  97 SE5       30.16R
6HR MIN TEMP:  65; 6HR MAX TEMP:  69;

SAFFORD        CLOUDY    72  69  90 NE3       30.07R
6HR MIN TEMP:  72; 6HR MAX TEMP:  78; 6HR PCP:  0.26;

$$

AZZ532-191300-
SOUTHWEST ARIZONA

CITY           SKY/WX    TMP DP  RH WIND       PRES   REMARKS
YUMA           CLOUDY    89  57  33 SE12      29.85R
6HR MIN TEMP:  89; 6HR MAX TEMP:  94;

$$

CAZ041-043-047-048-061-525>527-560>570-191300-
SOUTHERN CALIFORNIA

CITY           SKY/WX    TMP DP  RH WIND       PRES   REMARKS
DOWNTOWN L.A.  CLEAR     67  63  87 CALM      29.94S
6HR MIN TEMP:  67; 6HR MAX TEMP:  69;

L.A. AIRPORT   PTCLDY    67  65  93 NW3       29.95R
6HR MIN TEMP:  67; 6HR MAX TEMP:  70;

SAN DIEGO      MOCLDY    72  65  78 W6        29.96R
6HR MIN TEMP:  72; 6HR MAX TEMP:  73;

BURBANK        CLEAR     68  61  78 S3        29.96R
6HR MIN TEMP:  68; 6HR MAX TEMP:  72;

ONTARIO        MOCLDY    70  62  76 CALM      29.96R
6HR MIN TEMP:  70; 6HR MAX TEMP:  74;

RIVERSIDE      MOCLDY    70  62  76 W5        29.96R
6HR MIN TEMP:  70; 6HR MAX TEMP:  74;

PALM SPRINGS   MOCLDY    89  59  36 W3        29.87R
6HR MIN TEMP:  88; 6HR MAX TEMP:  94; 6HR PCP: TRACE;

EL CENTRO NAS  CLOUDY    85  67  54 E8        29.84R
6HR MIN TEMP:  84; 6HR MAX TEMP:  93;

IMPERIAL       CLOUDY    87  68  52 E6        29.82R
6HR MIN TEMP:  86; 6HR MAX TEMP:  95;

BLYTHE         CLOUDY    90  66  45 SW5       29.87R
6HR MIN TEMP:  90; 6HR MAX TEMP:  99;

NEEDLES        CLOUDY    94  64  37 SW21G28   29.89R
6HR MIN TEMP:  94; 6HR MAX TEMP:  99;

$$

NVZ020-UTZ003-191300-
SOUTHERN NEVADA-UTAH

CITY           SKY/WX    TMP DP  RH WIND       PRES   REMARKS
LAS VEGAS      CLOUDY    90  63  40 S9        29.93R
6HR MIN TEMP:  90; 6HR MAX TEMP:  95;

SALT LAKE CITY CLOUDY    87  52  29 SE7       29.99R
6HR MIN TEMP:  79; 6HR MAX TEMP:  89; 6HR PCP:  0.01;

$$

NMZ009-TXZ055-191300-
NEW MEXICO-WEST TEXAS

CITY           SKY/WX    TMP DP  RH WIND       PRES   REMARKS
ALBUQUERQUE    PTCLDY    69  59  70 E5        30.28R
6HR MIN TEMP:  69; 6HR MAX TEMP:  79;

EL PASO        PTCLDY    72  65  78 SE6       30.17R
6HR MIN TEMP:  72; 6HR MAX TEMP:  77;

$$


........................KEY........................
SKY/WX - SKY CONDITION/WEATHER
TMP    - TEMPERATURE IN FAHRENHEIT
DP     - DEW POINT IN FAHRENHEIT
RH     - RELATIVE HUMIDITY IN PERCENT
WIND   - DIRECTION AND SPEED IN MILES PER HOUR (MPH)
VRB    - VARIABLE WIND DIRECTION
PRES   - MEAN SEA LEVEL PRESSURE IN INCHES OF MERCURY
         F - FALLING PRESSURE   R - RISING PRESSURE
         S - STEADY PRESSURE
VSB    - VISIBILITY IN MILES
HX     - HEAT INDEX IN FAHRENHEIT
WCI    - WIND CHILL INDEX IN FAHRENHEIT
TC     - TEMPERATURE IN CELSIUS WHICH IS ALSO KNOWN AS
         TEMPERATURE IN CENTIGRADE
AFB    - AIR FORCE BASE
         LUKE AFB IS LUKE AIR FORCE BASE
         DAVIS-MONTHAN IS DAVIS-MONTHAN AIR FORCE BASE
NAS    - NAVAL AIR STATION
         EL CENTRO NAS IS EL CENTRO NAVAL AIR STATION
N/A    - NOT AVAILABLE





USA.gov is the U.S. government's official web portal to all federal, state and local government web resources and services.